Location: Unspecified
(35.6961°N, 0.0000°E)
Time: 11:53:44
(UTC+00:00)

Vanguard 2 Rocket - Visible Passes

Search period start: 23 May 2019 00:00
Search period end: 02 June 2019 00:00
Orbit: 555 x 3325 km, 32.9° (Epoch: 22 May)

Date Brightness Start Highest point End Pass type
(mag) Time Alt. Az. Time Alt. Az. Time Alt. Az.
23 May 10.3 02:59:31 12° SSW 03:14:09 29° SE 03:26:52 10° E visible
24 May 10.6 02:03:09 15° S 02:12:49 22° SE 02:24:40 10° E visible
24 May 9.8 04:11:00 10° SW 04:29:32 48° SSE 04:42:45 10° E visible
25 May 10.7 01:06:43 13° SSE 01:11:36 14° SE 01:19:58 10° ESE visible
25 May 10.1 03:12:30 15° SSW 03:28:01 40° SSE 03:42:13 10° E visible
26 May 10.3 02:16:00 20° S 02:26:32 31° SE 02:40:54 10° E visible
27 May 10.4 01:19:27 20° SSE 01:25:12 23° SE 01:38:19 10° E visible
27 May 9.8 03:25:13 15° SW 03:41:54 51° SSE 03:57:02 10° E visible
28 May 10.6 00:22:50 15° SE 00:24:07 15° SE 00:33:19 10° ESE visible
28 May 10.0 02:28:36 24° SSW 02:40:13 42° SSE 02:56:06 10° E visible
29 May 10.1 01:31:56 27° S 01:38:42 33° SE 01:54:21 10° E visible
29 May 9.7 03:37:41 14° SW 03:55:49 62° SSE 04:11:33 10° E visible
30 May 10.3 00:35:12 23° SE 00:37:29 24° SE 00:51:19 10° E visible
30 May 9.8 02:40:57 25° SSW 02:53:55 53° SSE 03:10:50 10° E visible
30 May 10.6 23:38:25 15° SE 23:38:25 15° SE 23:45:52 10° ESE visible
31 May 9.9 01:44:10 33° S 01:52:11 44° SE 02:09:27 10° E visible
31 May 9.6 03:49:54 11° WSW 04:09:51 71° SSE 04:25:57 10° E visible
01 Jun 9.9 00:47:19 32° SSE 00:50:47 34° SE 01:07:13 10° E visible
01 Jun 9.7 02:53:03 23° SW 03:07:45 64° SSE 03:25:18 10° E visible
